Location: Kra?nica
(53.4833°N, 14.6167°E)
Time: 16:56:43
(UTC+00:00)

CZ-2C R/B - Pass Details

Date: 23 May 2024
Orbit: 783 x 868 km, 98.3° (Epoch: 13 June)

Event Time Altitude Azimuth Distance (km) Brightness Sun altitude
Exits shadow 00:47:46 - 160° (SSE) 2,708 4.9 -12.2°
Reaches altitude 10° 00:48:41 10° 160° (SSE) 2,339 4.6 -12.1°
Maximum altitude 00:53:51 85° 74° (ENE) 796 2.6 -11.8°
Drops below altitude 10° 00:59:04 10° 346° (NNW) 2,367 5.8 -11.4°
Sets 01:01:25 0° 346° (NNW) 3,308 6.6 -11.3°
